Wetterdaten am Flugplatz MSG Übersee

alte Datensätze gelöscht
48 aktuelle Wetterdateneinträge gefunden

Datum/Uhrzeit   Windrichtung/Grad    Geschw./kmh    Temp./C°    Luftdruck/mbar    Spannung/Volt   
2026-09-01 00:00 W/260 8 20 1024 12,33
2026-09-01 00:10 W/260 10 20 1024 12,35
2026-09-01 00:20 W/274 7 20 1024 12,38
2026-09-01 00:30 NW/297 4 20 1024 12,39
2026-09-01 00:40 W/280 7 20 1024 12,02
2026-09-01 00:50 O/96 7 20 1024 12,29
2026-09-01 01:00 W/287 6 20 1024 12,27
2026-09-01 01:11 W/283 8 20 1025 12,32
2026-09-01 01:21 W/273 9 20 1025 12,40
2026-09-01 01:31 W/253 10 20 1025 12,36
2026-09-01 01:41 W/255 9 20 1025 12,38
2026-09-01 01:51 W/266 7 19 1025 12,40
2026-09-01 02:01 W/264 4 19 1025 12,11
2026-09-01 02:11 W/264 6 19 1025 12,21
2026-09-01 02:21 W/256 8 19 1025 12,24
2026-09-01 02:31 W/269 7 19 1025 12,27
2026-09-01 02:41 W/269 6 19 1025 12,30
2026-09-01 02:51 W/263 4 19 1025 12,33
2026-09-01 03:01 W/256 4 19 1025 11,95
2026-09-01 03:11 W/276 4 19 1025 12,21
2026-09-01 03:21 W/259 3 19 1025 12,23
2026-09-01 03:31 W/256 2 19 1025 12,27
2026-09-01 03:41 W/255 3 18 1025 12,29
2026-09-01 03:51 W/255 3 18 1025 12,32
2026-09-01 04:02 SW/204 7 18 1025 12,33
2026-09-01 04:12 S/171 5 18 1025 11,98
2026-09-01 04:22 S/191 8 18 1025 12,18
2026-09-01 04:32 SW/204 10 18 1025 12,23
2026-09-01 04:42 SW/209 11 18 1025 12,26
2026-09-01 04:52 SW/204 12 18 1025 12,29
2026-09-01 05:02 SW/207 13 18 1025 12,32
2026-09-01 05:12 SW/207 17 18 1025 11,99
2026-09-01 05:22 SW/205 20 18 1025 12,20
2026-09-01 05:32 SW/208 23 17 1025 12,24
2026-09-01 05:42 S/201 18 17 1025 12,27
2026-09-01 05:52 S/201 24 17 1025 12,30
2026-09-01 06:02 S/200 20 17 1025 12,16
2026-09-01 06:12 SW/203 25 17 1025 12,21
2026-09-01 06:22 S/202 26 17 1025 12,24
2026-09-01 06:33 S/194 27 17 1025 12,26
2026-09-01 06:43 SW/208 24 17 1025 12,29
2026-09-01 06:53 SW/214 19 17 1025 11,83
2026-09-01 07:03 SW/216 16 16 1025 12,13
2026-09-01 07:13 SW/225 11 16 1025 12,20
2026-09-01 07:23 SW/226 14 16 1025 12,23
2026-09-01 07:33 SW/213 15 16 1025 12,26
2026-09-01 07:43 SW/217 13 17 1025 12,30
2026-09-01 07:53 SW/214 12 17 1025 12,16